Weather in Urmayevo

Russia / Chuvash Republic     55°14′00″N   47°30′00″E
temp.,
°C
wind,
m/s
gust,
m/s
humid.,
%
clouds,
%
prec.,
mm/h
press.,
hPa
HPBL,
m
22 april, thu
thu2200:00+3s71492100 0.5 1018597
03:00+4s5994100 0.5 1020345
06:00+4sse4894100 0.1 1021246
09:00+6sse51089100 0.1 1022376
12:00+12s796230 0.1 10211281
15:00+13sw6858100 1.1 10201344
18:00+11sw37675 1.6 1021194
21:00+7wnw338122 1.7 102330
23 april, fri
fri2300:00+7w228286 0.0 102323
03:00+5sw11841 0.0 102410
06:00+6s22820 0.0 102449
09:00+11s33570 0.0 1024553
12:00+14sse33464 0.0 10231469
15:00+15se444344 0.0 10221949
18:00+13se47586 0.0 1021360
21:00+9se3776100 0.0 1021173
24 april, sat
sat2400:00+8se3483100 0.0 101976
03:00+7e2284100 0.0 101832
06:00+7ene2684100 0.0 1016210
09:00+9e4572100 0.0 1014513
12:00+12se4460100 0.0 10121250
15:00+11ese6669100 0.1 1011740
18:00+10ese687599 0.0 1010639
21:00+8ese6128394 0.0 1008522
25 april, sun
sun2500:00+8se51089100 1.5 1005361
03:00+5wsw81193100 6.4 1004704
06:00+4w81394100 1.8 10061072
09:00+7wsw913645 1.8 10071470
12:00+10wsw9124365 0.0 10092538
15:00+11wsw91340100 0.0 10103006
18:00+8wsw7105572 0.1 10111142
21:00+5sw5116790 0.2 1013424
26 april, mon
mon2600:00+4sw511765 0.0 1014374
03:00+3sw511745 0.0 1014478
06:00+3sw512750 0.0 1015615
09:00+7wsw79505 0.0 10161454
12:00+10sw6943100 0.0 10152352
15:00+8sw696956 0.5 10141162
18:00+8sw477093 0.5 1014788
21:00+6ssw338248 0.5 101351